.
WxDataArchive / Data Records for 2015-03-26
2015-03-25 March 2015 2015-03-27

Data Records for Thursday, 26 March 2015

Time	Temp	Chill	HIndex	Humid	Dewpt	 Wind 	HiWind	WindDir	Rain 	Barom
-----	----	-----	------	-----	-----	------	------	-------	-----	-----
00:00	43.8	43.8	43.8	88	40.5	1	4	248	0.00	30.000 
00:05	43.8	43.8	43.8	88	40.5	2	4	248	0.00	30.000 
00:10	43.6	43.6	43.6	88	40.3	0	2	248	0.00	30.000 
00:15	43.6	43.6	43.6	88	40.3	1	3	248	0.00	30.001 
00:20	43.6	43.6	43.6	88	40.3	1	3	248	0.00	30.001 
00:25	43.6	43.6	43.6	88	40.3	1	3	248	0.00	30.001 
00:30	43.5	43.5	43.5	88	40.2	1	3	248	0.00	29.999 
00:35	43.5	43.5	43.5	89	40.5	1	4	248	0.00	29.999 
00:40	43.3	43.3	43.3	89	40.3	1	5	248	0.00	29.999 
00:45	43.3	43.3	43.3	89	40.3	1	3	292	0.00	30.000 
00:50	43.2	43.2	43.2	89	40.2	1	3	315	0.00	30.000 
00:55	43.2	43.2	43.2	89	40.2	1	4	292	0.00	30.000 
01:00	43.1	43.1	43.1	89	40.1	1	3	292	0.00	30.000 
01:05	42.9	42.9	42.9	90	40.2	1	3	292	0.00	30.000 
01:10	42.9	42.9	42.9	90	40.2	1	4	292	0.00	30.000 
01:15	42.8	42.8	42.8	90	40.1	2	4	292	0.00	29.974 
01:20	42.6	42.6	42.6	90	39.9	2	5	315	0.00	29.974 
01:25	42.6	42.6	42.6	90	39.9	1	3	338	0.00	29.974 
01:30	42.5	42.5	42.5	91	40.1	0	2	292	0.00	29.974 
01:35	42.5	42.5	42.5	91	40.1	1	2	292	0.00	29.974 
01:40	42.3	42.3	42.3	91	39.9	0	2	292	0.00	29.974 
01:45	42.3	42.3	42.3	91	39.9	0	1	292	0.00	29.982 
01:50	42.3	42.3	42.3	91	39.9	1	4	292	0.01	29.982 
01:55	42.2	42.2	42.2	91	39.8	1	4	292	0.00	29.982 
02:00	42.2	42.2	42.2	91	39.8	1	4	292	0.00	29.965 
02:05	42.1	42.1	42.1	91	39.7	1	4	292	0.00	29.965 
02:10	41.9	41.9	41.9	92	39.7	2	7	292	0.00	29.965 
02:15	41.9	41.9	41.9	92	39.7	2	6	270	0.00	29.938 
02:20	41.8	41.8	41.8	92	39.6	2	4	270	0.00	29.938 
02:25	41.6	41.6	41.6	92	39.5	1	4	270	0.00	29.938 
02:30	41.6	41.6	41.6	92	39.5	1	5	338	0.00	29.948 
02:35	41.6	41.6	41.6	92	39.5	1	3	338	0.00	29.948 
02:40	41.5	41.5	41.5	92	39.4	2	5	270	0.00	29.948 
02:45	41.3	41.3	41.3	92	39.2	1	6	292	0.00	29.940 
02:50	41.1	41.1	41.1	92	39.0	1	4	292	0.00	29.940 
02:55	40.9	40.9	40.9	91	38.5	1	6	292	0.00	29.940 
03:00	40.8	40.8	40.8	91	38.4	2	5	270	0.00	29.940 
03:05	40.6	40.6	40.6	91	38.2	2	4	315	0.00	29.940 
03:10	40.6	40.6	40.6	90	37.9	1	4	292	0.00	29.940 
03:15	40.6	40.6	40.6	90	37.9	0	3	292	0.00	29.935 
03:20	40.5	40.5	40.5	90	37.8	0	4	292	0.00	29.935 
03:25	40.3	40.3	40.3	89	37.3	1	4	292	0.00	29.935 
03:30	40.3	40.3	40.3	89	37.3	0	3	292	0.01	29.925 
03:35	40.2	40.2	40.2	90	37.5	1	3	292	0.00	29.925 
03:40	40.2	40.2	40.2	90	37.5	1	3	292	0.01	29.925 
03:45	40.1	40.1	40.1	90	37.4	0	1	292	0.02	29.922 
03:50	39.9	39.9	39.9	90	37.2	1	3	292	0.01	29.922 
03:55	39.8	39.8	39.8	90	37.1	1	4	315	0.01	29.922 
04:00	39.6	39.6	39.6	90	36.9	1	3	315	0.02	29.918 
04:05	39.6	39.6	39.6	91	37.2	1	3	315	0.02	29.918 
04:10	39.5	39.5	39.5	91	37.1	1	4	338	0.02	29.918 
04:15	39.3	39.3	39.3	91	36.9	0	2	338	0.03	29.912 
04:20	39.2	39.2	39.2	91	36.8	0	2	338	0.01	29.912 
04:25	39.2	39.2	39.2	91	36.8	0	2	338	0.02	29.912 
04:30	39.2	39.2	39.2	92	37.1	0	1	338	0.01	29.920 
04:35	39.2	39.2	39.2	92	37.1	0	2	338	0.01	29.920 
04:40	39.1	39.1	39.1	92	37.0	0	1	338	0.01	29.920 
04:45	39.1	39.1	39.1	92	37.0	0	2	338	0.01	29.907 
04:50	38.9	38.9	38.9	92	36.8	0	0	---	0.01	29.907 
04:55	38.9	38.9	38.9	92	36.8	0	1	338	0.02	29.907 
05:00	38.9	38.9	38.9	92	36.8	0	1	338	0.01	29.904 
05:05	38.9	38.9	38.9	92	36.8	0	0	---	0.01	29.904 
05:10	38.8	38.8	38.8	92	36.7	0	0	---	0.01	29.904 
05:15	38.8	38.8	38.8	92	36.7	0	0	---	0.01	29.905 
05:20	38.8	38.8	38.8	92	36.7	0	0	---	0.01	29.905 
05:25	38.8	38.8	38.8	92	36.7	0	0	---	0.02	29.905 
05:30	38.8	38.8	38.8	93	37.0	0	0	---	0.01	29.907 
05:35	38.8	38.8	38.8	93	37.0	0	0	---	0.02	29.907 
05:40	38.6	38.6	38.6	93	36.8	0	0	---	0.01	29.907 
05:45	38.6	38.6	38.6	93	36.8	0	0	---	0.02	29.892 
05:50	38.6	38.6	38.6	93	36.8	0	0	---	0.01	29.892 
05:55	38.6	38.6	38.6	93	36.8	0	0	---	0.01	29.892 
06:00	38.5	38.5	38.5	93	36.7	0	0	---	0.01	29.893 
06:05	38.5	38.5	38.5	93	36.7	0	0	---	0.02	29.893 
06:10	38.5	38.5	38.5	93	36.7	0	0	---	0.01	29.893 
06:15	38.5	38.5	38.5	93	36.7	0	0	---	0.01	29.895 
06:20	38.3	38.3	38.3	93	36.5	0	0	---	0.01	29.895 
06:25	38.3	38.3	38.3	93	36.5	0	0	---	0.01	29.895 
06:30	38.3	38.3	38.3	93	36.5	0	0	---	0.01	29.898 
06:35	38.3	38.3	38.3	93	36.5	0	0	---	0.01	29.898 
06:40	38.2	38.2	38.2	93	36.4	0	0	---	0.01	29.898 
06:45	38.2	38.2	38.2	93	36.4	0	0	---	0.00	29.898 
06:50	38.2	38.2	38.2	93	36.4	0	1	338	0.01	29.898 
06:55	38.0	38.0	38.0	93	36.2	0	0	---	0.01	29.898 
07:00	38.0	38.0	38.0	94	36.4	0	0	---	0.01	29.895 
07:05	37.8	37.8	37.8	93	36.0	0	2	338	0.01	29.895 
07:10	37.5	37.5	37.5	93	35.7	0	1	338	0.00	29.895 
07:15	37.2	37.2	37.2	93	35.4	0	1	338	0.01	29.899 
07:20	37.0	37.0	37.0	93	35.2	0	1	338	0.01	29.899 
07:25	36.8	36.8	36.8	93	35.0	0	1	338	0.00	29.899 
07:30	36.6	36.6	36.6	93	34.8	0	0	---	0.01	29.902 
07:35	36.5	36.5	36.5	93	34.7	0	2	338	0.00	29.902 
07:40	36.2	36.2	36.2	93	34.4	0	2	338	0.01	29.902 
07:45	36.0	36.0	36.0	93	34.2	0	1	338	0.00	29.896 
07:50	35.9	35.9	35.9	93	34.1	0	0	---	0.01	29.896 
07:55	35.8	35.8	35.8	93	34.0	0	1	338	0.00	29.896 
08:00	35.6	35.6	35.6	93	33.8	0	1	338	0.01	29.897 
08:05	35.5	35.5	35.5	93	33.7	0	0	---	0.00	29.897 
08:10	35.3	35.3	35.3	93	33.5	0	0	---	0.00	29.897 
08:15	35.2	35.2	35.2	93	33.4	0	0	---	0.00	29.910 
08:20	35.0	35.0	35.0	93	33.2	0	1	338	0.01	29.910 
08:25	35.0	35.0	35.0	93	33.2	0	1	338	0.00	29.910 
08:30	34.9	34.9	34.9	93	33.1	0	1	338	0.00	29.913 
08:35	34.9	34.9	34.9	93	33.1	0	1	338	0.01	29.913 
08:40	34.7	34.7	34.7	93	32.9	0	1	338	0.00	29.913 
08:45	34.6	34.6	34.6	93	32.8	0	1	338	0.00	29.912 
08:50	34.3	34.3	34.3	93	32.5	0	1	338	0.00	29.912 
08:55	34.3	34.3	34.3	93	32.5	0	1	338	0.01	29.912 
09:00	34.3	34.3	34.3	93	32.5	0	0	---	0.00	29.914 
09:05	34.3	34.3	34.3	94	32.8	0	1	338	0.00	29.914 
09:10	34.3	34.3	34.3	94	32.8	0	1	338	0.00	29.914 
09:15	34.4	34.4	34.4	94	32.9	0	1	338	0.00	29.917 
09:20	34.4	34.4	34.4	94	32.9	0	1	338	0.00	29.917 
09:25	34.4	34.4	34.4	94	32.9	0	2	338	0.01	29.917 
09:30	34.4	34.4	34.4	94	32.9	0	1	338	0.00	29.914 
09:35	34.3	34.3	34.3	94	32.8	0	0	---	0.00	29.914 
09:40	34.3	34.3	34.3	94	32.8	0	0	---	0.00	29.914 
09:45	34.3	34.3	34.3	94	32.8	0	1	338	0.00	29.914 
09:50	34.3	34.3	34.3	94	32.8	0	1	338	0.01	29.914 
09:55	34.4	34.4	34.4	94	32.9	0	2	338	0.00	29.914 
10:00	34.6	34.6	34.6	94	33.1	0	2	338	0.00	29.914 
10:05	34.6	34.6	34.6	94	33.1	0	2	338	0.00	29.914 
10:10	34.9	34.9	34.9	94	33.4	0	2	338	0.00	29.914 
10:15	35.2	35.2	35.2	94	33.6	0	1	338	0.00	29.905 
10:20	35.5	35.5	35.5	94	33.9	0	2	338	0.00	29.905 
10:25	35.8	35.8	35.8	94	34.2	0	2	338	0.00	29.905 
10:30	35.8	35.8	35.8	94	34.2	0	3	338	0.00	29.905 
10:35	35.9	35.9	35.9	94	34.3	0	2	338	0.00	29.905 
10:40	36.0	36.0	36.0	94	34.4	0	2	338	0.00	29.905 
10:45	36.2	36.2	36.2	94	34.6	1	3	338	0.00	29.912 
10:50	36.3	36.3	36.3	94	34.7	0	2	292	0.00	29.912 
10:55	36.3	36.3	36.3	94	34.7	1	2	292	0.00	29.912 
11:00	36.6	36.6	36.6	94	35.0	0	1	292	0.00	29.907 
11:05	36.9	36.9	36.9	94	35.3	1	2	292	0.00	29.907 
11:10	36.9	36.9	36.9	94	35.3	1	5	292	0.00	29.907 
11:15	36.9	36.9	36.9	94	35.3	1	3	315	0.00	29.911 
11:20	36.8	36.8	36.8	93	35.0	0	2	315	0.00	29.911 
11:25	36.9	36.9	36.9	93	35.1	1	5	270	0.00	29.911 
11:30	36.8	36.8	36.8	92	34.7	2	3	270	0.00	29.912 
11:35	36.9	36.9	36.9	92	34.8	1	3	270	0.00	29.912 
11:40	37.0	37.0	37.0	90	34.3	1	3	292	0.00	29.912 
11:45	37.0	37.0	37.0	89	34.1	1	4	338	0.00	29.912 
11:50	37.5	37.5	37.5	88	34.3	1	3	292	0.00	29.912 
11:55	37.9	37.9	37.9	87	34.4	1	3	315	0.00	29.912 
12:00	38.0	38.0	38.0	86	34.2	1	4	315	0.00	29.900 
12:05	38.2	38.2	38.2	84	33.8	2	5	315	0.00	29.900 
12:10	38.2	38.2	38.2	82	33.2	1	4	292	0.00	29.900 
12:15	38.3	38.3	38.3	81	33.0	1	3	292	0.00	29.901 
12:20	38.3	38.3	38.3	80	32.7	1	3	315	0.00	29.901 
12:25	38.6	38.6	38.6	79	32.7	1	4	315	0.00	29.901 
12:30	38.6	38.6	38.6	78	32.3	1	3	315	0.00	29.896 
12:35	38.9	38.9	38.9	79	33.0	1	3	338	0.00	29.896 
12:40	39.1	39.1	39.1	77	32.5	1	4	315	0.00	29.896 
12:45	39.1	39.1	39.1	76	32.2	1	3	292	0.00	29.896 
12:50	39.1	39.1	39.1	75	31.9	2	5	0	0.00	29.896 
12:55	39.2	39.2	39.2	74	31.6	2	4	0	0.00	29.896 
13:00	39.2	39.2	39.2	73	31.3	2	5	315	0.00	29.895 
13:05	39.3	39.3	39.3	73	31.4	2	5	270	0.00	29.895 
13:10	39.5	39.5	39.5	73	31.6	1	5	315	0.00	29.895 
13:15	39.6	39.6	39.6	73	31.7	1	3	315	0.00	29.889 
13:20	39.8	39.8	39.8	72	31.5	1	4	315	0.00	29.889 
13:25	39.9	39.9	39.9	70	30.9	2	5	315	0.00	29.889 
13:30	40.1	40.1	40.1	69	30.8	2	5	315	0.00	29.889 
13:35	40.1	40.1	40.1	69	30.8	2	4	270	0.00	29.889 
13:40	40.1	40.1	40.1	69	30.8	2	4	270	0.00	29.889 
13:45	40.1	40.1	40.1	69	30.8	1	3	248	0.00	29.890 
13:50	40.1	40.1	40.1	69	30.8	2	4	248	0.00	29.890 
13:55	40.3	40.3	40.3	69	31.0	1	4	270	0.00	29.890 
14:00	40.6	40.6	40.6	69	31.2	2	6	338	0.00	29.892 
14:05	40.5	40.5	40.5	66	30.0	3	5	315	0.00	29.892 
14:10	40.5	40.5	40.5	67	30.4	2	4	292	0.00	29.892 
14:15	40.9	40.9	40.9	67	30.8	2	6	292	0.00	29.884 
14:20	41.1	41.1	41.1	65	30.2	2	6	270	0.00	29.884 
14:25	41.1	41.1	41.1	65	30.2	2	4	248	0.00	29.884 
14:30	41.2	41.2	41.2	65	30.3	2	4	248	0.00	29.882 
14:35	41.5	41.5	41.5	65	30.6	2	5	270	0.00	29.882 
14:40	41.5	41.5	41.5	65	30.6	1	5	270	0.00	29.882 
14:45	41.3	41.3	41.3	64	30.1	2	4	270	0.00	29.880 
14:50	41.2	41.2	41.2	63	29.6	2	5	270	0.00	29.880 
14:55	41.5	41.5	41.5	63	29.9	2	4	270	0.00	29.880 
15:00	41.6	41.6	41.6	63	30.0	2	4	270	0.00	29.867 
15:05	41.6	41.6	41.6	61	29.2	2	6	338	0.00	29.867 
15:10	41.8	41.8	41.8	62	29.7	2	6	338	0.00	29.867 
15:15	42.3	42.3	42.3	62	30.2	1	4	338	0.00	29.866 
15:20	42.6	42.6	42.6	61	30.1	2	5	270	0.00	29.866 
15:25	43.2	43.2	43.2	60	30.3	3	5	270	0.00	29.866 
15:30	43.9	43.9	43.9	62	31.7	2	7	292	0.00	29.859 
15:35	44.5	44.5	44.5	59	31.1	2	5	315	0.00	29.859 
15:40	44.6	44.6	44.6	55	29.4	3	7	270	0.00	29.859 
15:45	44.6	44.6	44.6	56	29.9	3	5	270	0.00	29.848 
15:50	44.3	44.3	44.3	54	28.7	3	7	315	0.00	29.848 
15:55	44.2	44.2	44.2	55	29.1	2	5	338	0.00	29.848 
16:00	44.1	44.1	44.1	54	28.5	2	6	292	0.00	29.863 
16:05	43.9	43.9	43.9	54	28.3	1	5	270	0.00	29.863 
16:10	44.1	44.1	44.1	55	29.0	1	4	338	0.00	29.863 
16:15	43.8	43.8	43.8	55	28.7	2	6	292	0.00	29.867 
16:20	43.5	43.5	43.5	54	28.0	2	5	315	0.00	29.867 
16:25	43.5	43.5	43.5	54	28.0	1	5	315	0.00	29.867 
16:30	43.8	43.8	43.8	55	28.7	1	5	292	0.00	29.879 
16:35	44.1	44.1	44.1	53	28.1	3	9	338	0.00	29.879 
16:40	43.9	43.9	43.9	52	27.4	3	5	292	0.00	29.879 
16:45	43.8	43.8	43.8	51	26.9	3	10	292	0.00	29.892 
16:50	43.5	43.5	43.5	54	28.0	2	7	338	0.00	29.892 
16:55	43.5	43.5	43.5	53	27.5	2	7	270	0.00	29.892 
17:00	43.1	43.1	43.1	52	26.7	3	7	292	0.00	29.894 
17:05	42.9	42.9	42.9	53	27.0	2	5	315	0.00	29.894 
17:10	42.9	42.9	42.9	52	26.5	2	5	270	0.00	29.894 
17:15	42.8	42.8	42.8	52	26.4	2	4	248	0.00	29.897 
17:20	42.8	42.8	42.8	53	26.9	2	4	248	0.00	29.897 
17:25	42.6	42.6	42.6	53	26.7	2	6	270	0.00	29.897 
17:30	42.6	42.6	42.6	52	26.2	3	6	270	0.00	29.899 
17:35	42.6	42.6	42.6	54	27.1	2	4	248	0.00	29.899 
17:40	42.6	42.6	42.6	51	25.8	3	7	292	0.00	29.899 
17:45	42.5	42.5	42.5	52	26.1	2	6	292	0.00	29.898 
17:50	42.3	42.3	42.3	53	26.4	2	6	315	0.00	29.898 
17:55	42.3	42.3	42.3	52	25.9	2	6	292	0.00	29.898 
18:00	42.2	42.2	42.2	51	25.4	2	6	315	0.00	29.910 
18:05	42.1	42.1	42.1	52	25.8	3	6	292	0.00	29.910 
18:10	42.1	42.1	42.1	53	26.2	3	7	270	0.00	29.910 
18:15	41.9	41.9	41.9	53	26.0	2	6	315	0.00	29.914 
18:20	41.6	41.6	41.6	53	25.8	2	6	315	0.00	29.914 
18:25	41.3	41.3	41.3	53	25.5	2	7	315	0.00	29.914 
18:30	41.2	41.2	41.2	51	24.5	3	6	292	0.00	29.917 
18:35	40.9	40.9	40.9	51	24.2	3	6	292	0.00	29.917 
18:40	40.9	40.9	40.9	51	24.2	3	10	338	0.00	29.917 
18:45	40.8	38.2	40.8	52	24.6	4	12	292	0.00	29.923 
18:50	40.2	40.2	40.2	54	24.9	3	7	270	0.00	29.923 
18:55	39.8	39.8	39.8	54	24.5	3	7	270	0.00	29.923 
19:00	39.5	39.5	39.5	54	24.2	3	9	338	0.00	29.931 
19:05	39.3	39.3	39.3	54	24.1	3	7	315	0.00	29.931 
19:10	39.2	39.2	39.2	53	23.5	2	6	292	0.00	29.931 
19:15	39.2	39.2	39.2	53	23.5	2	6	248	0.00	29.937 
19:20	39.1	39.1	39.1	52	23.0	3	6	292	0.00	29.937 
19:25	38.9	38.9	38.9	52	22.8	2	4	338	0.00	29.937 
19:30	38.8	38.8	38.8	51	22.2	2	10	292	0.00	29.938 
19:35	38.8	38.8	38.8	51	22.2	2	6	0	0.00	29.938 
19:40	38.5	38.5	38.5	51	22.0	2	4	270	0.00	29.938 
19:45	38.3	38.3	38.3	51	21.8	1	5	338	0.00	29.947 
19:50	38.0	38.0	38.0	51	21.5	2	8	292	0.00	29.947 
19:55	37.8	37.8	37.8	52	21.8	2	5	315	0.00	29.947 
20:00	37.5	37.5	37.5	53	21.9	1	4	315	0.00	29.951 
20:05	37.2	37.2	37.2	52	21.2	2	5	338	0.00	29.951 
20:10	37.0	37.0	37.0	53	21.5	2	6	315	0.00	29.951 
20:15	36.9	36.9	36.9	52	20.9	3	7	292	0.00	29.959 
20:20	36.6	36.6	36.6	52	20.7	2	4	338	0.00	29.959 
20:25	36.5	36.5	36.5	52	20.6	3	7	292	0.00	29.959 
20:30	36.3	36.3	36.3	52	20.4	2	9	292	0.00	29.961 
20:35	36.2	36.2	36.2	52	20.3	1	4	270	0.00	29.961 
20:40	36.0	36.0	36.0	53	20.5	1	3	0	0.00	29.961 
20:45	35.9	35.9	35.9	53	20.5	0	4	270	0.00	29.969 
20:50	35.6	35.6	35.6	54	20.6	0	2	270	0.00	29.969 
20:55	35.5	35.5	35.5	54	20.5	0	3	315	0.00	29.969 
21:00	35.3	35.3	35.3	54	20.3	0	2	292	0.00	29.973 
21:05	35.2	35.2	35.2	54	20.2	0	1	292	0.00	29.973 
21:10	35.2	35.2	35.2	54	20.2	1	5	338	0.00	29.973 
21:15	35.2	35.2	35.2	54	20.2	0	3	0	0.00	29.973 
21:20	35.0	35.0	35.0	55	20.5	0	2	0	0.00	29.973 
21:25	34.9	34.9	34.9	55	20.4	0	2	0	0.00	29.973 
21:30	34.7	34.7	34.7	55	20.2	0	1	0	0.00	29.975 
21:35	34.7	34.7	34.7	56	20.6	0	3	0	0.00	29.975 
21:40	34.7	34.7	34.7	56	20.6	0	3	315	0.00	29.975 
21:45	34.7	34.7	34.7	56	20.6	0	2	315	0.00	29.980 
21:50	34.7	34.7	34.7	55	20.2	2	7	315	0.00	29.980 
21:55	34.9	34.9	34.9	55	20.4	1	4	315	0.00	29.980 
22:00	34.9	34.9	34.9	54	20.0	1	6	338	0.00	29.977 
22:05	34.9	34.9	34.9	54	20.0	1	4	270	0.00	29.977 
22:10	34.7	34.7	34.7	55	20.2	0	4	270	0.00	29.977 
22:15	34.7	34.7	34.7	54	19.8	1	4	338	0.00	29.977 
22:20	34.9	34.9	34.9	55	20.4	2	6	338	0.00	29.977 
22:25	34.7	34.7	34.7	56	20.6	1	3	338	0.00	29.977 
22:30	34.7	34.7	34.7	57	21.0	1	5	315	0.00	29.981 
22:35	34.6	34.6	34.6	58	21.4	1	3	338	0.00	29.981 
22:40	34.4	34.4	34.4	59	21.6	1	4	292	0.00	29.981 
22:45	34.3	34.3	34.3	60	21.9	1	4	292	0.00	29.983 
22:50	34.1	34.1	34.1	61	22.1	0	2	292	0.00	29.983 
22:55	33.8	33.8	33.8	62	22.2	1	3	315	0.00	29.983 
23:00	33.7	33.7	33.7	63	22.5	0	3	315	0.00	29.983 
23:05	33.5	33.5	33.5	64	22.6	0	4	270	0.00	29.983 
23:10	33.4	33.4	33.4	64	22.6	0	2	270	0.00	29.983 
23:15	33.2	33.2	33.2	65	22.7	0	2	270	0.00	29.984 
23:20	33.1	33.1	33.1	65	22.6	1	3	292	0.00	29.984 
23:25	32.9	32.9	32.9	66	22.8	0	3	292	0.00	29.984 
23:30	32.8	32.8	32.8	67	23.1	0	3	292	0.00	29.983 
23:35	32.7	32.7	32.7	68	23.3	0	2	292	0.00	29.983 
23:40	32.4	32.4	32.4	68	23.0	0	2	292	0.00	29.983 
23:45	32.2	32.2	32.2	69	23.2	0	3	292	0.00	29.985 
23:50	32.2	32.2	32.2	69	23.2	0	2	292	0.00	29.985 
23:55	32.1	32.1	32.1	70	23.4	0	3	292	0.00	29.985 

CoCoRaHS
IN-AL-39
A2 Web Hosting
Creative Commons License
GoDaddy
search engine by freefind advanced

loaded 2018-11-20 03:22:38 • last modified 2010-11-18 10:43:29
Privacy PolicyDisclaimer
• wx.awcolley.com is powered by PmWiki v.2002016 •
• all content (unless otherwise noted) © 2018 A W Colley